Regional Weather Roundup
Issued by NWS

Home | Current Version | Previous Version | Text Only | Print | Product List | Glossary On
Versions: 1 2 3 4 5 6 7 8 9 10 11 12 13 14 15 16 17 18 19 20 21 22 23 24 25 26 27 28 29 30 31 32 33 34 35 36 37 38 39 40 41 42 43 44 45 46 47 48 49
000
ASUS46 KPQR 300210
RWROR

OREGON REGIONAL WEATHER ROUNDUP
NATIONAL WEATHER SERVICE PORTLAND OR
700 PM PDT WED JUL 29 2015

NOTE: "FAIR" INDICATES FEW OR NO CLOUDS BELOW 12,000 FEET WITH
NO SIGNIFICANT WEATHER AND/OR OBSTRUCTIONS TO VISIBILITY.

ORZ001>013-300300-
NORTHWEST OREGON


CITY           SKY/WX    TMP DP  RH WIND       PRES   REMARKS
ASTORIA        SUNNY     76  54  46 NW18G26   30.04F
NEWPORT        SUNNY     63  54  72 N17G24    30.02S
PORTLAND       SUNNY     93  51  23 NW10      29.97F HX  90
VANCOUVER WA   SUNNY     94  45  18 NW9G20    29.97F HX  90
SCAPPOOSE      SUNNY     94  41  16 NW14      29.98F HX  90
HILLSBORO      SUNNY     94  45  18 N12       29.98S HX  90
AURORA         SUNNY     95  46  18 N9G18     29.98S HX  91
MCMINNVILLE    SUNNY     96  46  18 N14       29.97F HX  92
SALEM          SUNNY     97  44  16 N13       29.95S HX  93
CORVALLIS      SUNNY     99  45  15 NE13      29.97S HX  94
EUGENE         SUNNY     97  42  15 N14       29.95S HX  93
$$

ORZ021-028-300300-
SOUTHWEST OREGON


CITY           SKY/WX    TMP DP  RH WIND       PRES   REMARKS
NORTH BEND     SUNNY     66  57  72 N16       29.96S
BROOKINGS      SUNNY     74  56  53 CALM      29.92S
ROSEBURG       SUNNY    101  44  14 N13       29.91S HX  97
SEXTON SUMMIT  SUNNY     84  42  22 VRB5      30.13S
MEDFORD        SUNNY    102  31   8 NW5       29.91F HX  95
$$

ORZ014>016-041-300300-
COLUMBIA GORGE


CITY           SKY/WX    TMP DP  RH WIND       PRES   REMARKS
TROUTDALE      SUNNY     95  50  21 NW5       29.94F HX  92
THE DALLES     SUNNY     98  26   7 SE3       29.96F HX  91
$$

ORZ029>031-041-044-049-050-061>064-502-503-505>511-300300-
EASTERN OREGON


CITY           SKY/WX    TMP DP  RH WIND       PRES   REMARKS
REDMOND        SUNNY     88  35  15 N13       30.12S
BEND           SUNNY     86  32  14 N13       30.14S
PRINEVILLE     SUNNY     88  28  11 N10       30.12S
KLAMATH FALLS  SUNNY     88  27  11 N12       30.14F
LAKEVIEW       SUNNY     84  27  12 CALM      30.19S
HERMISTON      SUNNY     94  37  13 NE5       30.01F
PENDLETON      SUNNY     90  31  12 NE8       30.06S
JOHN DAY       SUNNY     87  31  13 CALM      30.17S
MEACHAM        SUNNY     80  33  18 VRB3      30.21S
LA GRANDE      SUNNY     88  34  14 CALM      30.12S
BAKER CITY     SUNNY     84  47  27 CALM      30.16F
BURNS          SUNNY     84  24  11 SW5       30.20F
ROME             N/A     89  15   6 N6        30.16S
ONTARIO        SUNNY     87  30  13 S3        30.12F
$$



USA.gov is the U.S. government's official web portal to all federal, state and local government web resources and services.